[[{"header":{"parameterUnit":"m.s-1","parameterCategory":1,"la1":30.2991,"la2":30.254,"lo1":-89.0895,"lo2":-89.0444,"dy":0.0017,"dx":0.0017,"nx":28,"ny":28,"refTime":"2024-07-19T21:00:00:Z","depth":0,"parameterNumber":2,"parameterNumberName":"U-component_of_WINDS"},"data":[0,0,0,0,0,0,0,0,0,0,0,0,0,0,0,0,0,0,0,0,0,0,0,0,0,0,0,0,0,0,0,0,0,0,0,0,0,0,0,0,0,0,0,0,0,0,0,0,0,0,0,0,0,0,0,0,0,0,1.6658,1.6658,0,1.661,1.6609,1.6609,1.6529,1.6527,1.6526,1.6524,1.6475,1.6475,1.6475,0,0,0,0,0,0,0,0,0,0,0,0,0,1.668,1.668,1.6658,1.6658,1.6657,1.661,1.6609,1.6609,1.6529,1.6527,1.6525,1.6524,1.6475,1.6475,1.6475,0,0,0,0,0,0,0,0,0,0,0,0,0,1.6655,1.668,1.6658,1.6611,1.6607,1.661,1.6609,1.6608,1.6529,1.6527,1.6525,1.6523,1.6475,1.6475,1.6475,1.652,0,0,1.6475,1.6475,0,0,0,0,0,0,0,0,1.6657,1.6654,1.6619,1.6615,1.6609,1.6573,1.6599,1.6579,1.653,1.6559,1.6524,1.6522,1.6509,1.6506,1.6502,1.6518,1.6516,1.6475,1.6475,1.6475,1.6476,0,0,0,0,0,0,0,1.6658,1.6656,1.6639,1.6619,1.6613,1.6592,1.6586,1.6595,1.6547,1.6556,1.655,1.6545,1.6506,1.6502,1.6501,1.6515,1.6475,1.6475,1.6476,1.6476,1.6561,1.6563,0,0,0,0,0,0,1.6667,1.6658,1.664,1.6637,1.6628,1.6594,1.6587,1.6587,1.6547,1.6538,1.6547,1.6542,1.6503,1.6501,1.6499,1.6546,1.6475,1.6476,1.6476,1.6559,1.6562,1.6564,0,0,0,0,0,0,1.6668,1.6666,1.6642,1.6646,1.6641,1.6596,1.6596,1.6587,1.6583,1.654,1.6531,1.6552,1.6501,1.6498,1.6514,1.6543,1.6476,1.6476,1.6557,1.656,1.6563,1.6642,0,0,0,0,0,0,1.6669,1.6667,1.6684,1.6647,1.6642,1.666,1.6598,1.6588,1.6583,1.6576,1.6542,1.6535,1.6499,1.6515,1.6515,1.6542,1.6476,1.6554,1.6558,1.6562,1.6637,1.6648,1.6657,0,0,0,0,0,1.667,1.6709,1.6686,1.6684,1.6662,1.6662,1.6659,1.6617,1.6586,1.6602,1.6574,1.6536,1.654,1.6517,1.6516,1.6544,1.6552,1.6557,1.6562,1.6632,1.6646,1.6657,0,0,0,0,0,0,1.6751,1.6704,1.6677,1.6705,1.6688,1.6648,1.6667,1.6633,1.6625,1.6618,1.6567,1.656,1.6582,1.6565,1.654,1.6584,1.654,1.6545,1.6594,1.6606,1.6616,1.6619,1.6476,0,0,0,0,0,1.6773,1.6777,1.6735,1.6764,1.6757,1.6714,1.6712,1.6682,1.6662,1.6654,1.6628,1.661,1.6607,1.6606,1.6601,1.6635,1.6625,1.6653,1.6663,1.6672,1.6676,1.6689,1.6701,1.6581,1.6581,1.658,0,0,1.6817,1.6791,1.6797,1.6779,1.6763,1.6767,1.6708,1.6716,1.6718,1.6656,1.6668,1.6648,1.6625,1.6649,1.6658,1.6635,1.6707,1.6678,1.6686,1.6685,1.6696,1.6707,1.6717,1.6584,1.6583,1.6583,0,0,1.6898,1.688,1.6901,1.6885,1.686,1.6831,1.6836,1.6801,1.6785,1.6797,1.6749,1.6751,1.6748,1.6732,1.6724,1.6798,1.6761,1.6798,1.6851,1.6864,1.6873,1.6882,1.6905,1.6914,1.6803,1.6803,1.6803,0,1.6955,1.696,1.6916,1.6926,1.6919,1.6862,1.6881,1.6868,1.6843,1.6839,1.6814,1.6807,1.6787,1.6805,1.6823,1.6819,1.6822,1.6801,1.6876,1.6883,1.689,1.6912,1.6921,1.6807,1.6807,1.6807,1.6806,0,1.7031,1.7035,1.7055,1.703,1.7026,1.7041,1.6998,1.6998,1.6968,1.6942,1.6953,1.6928,1.6916,1.6918,1.689,1.6932,1.6918,1.6885,1.6839,1.6907,1.6926,1.6935,1.6814,1.6812,1.6811,1.681,0,0,1.7161,1.7112,1.7119,1.7106,1.7074,1.7076,1.7088,1.7075,1.7075,1.706,1.7067,1.7065,1.7034,1.7024,1.6993,1.7006,1.7062,1.6971,1.697,1.6986,1.7103,1.7126,1.7137,1.7038,1.704,1.7041,1.7104,0,1.7233,1.725,1.721,1.7236,1.7238,1.7184,1.7194,1.7174,1.715,1.7147,1.712,1.7118,1.7079,1.7072,1.7082,1.7053,1.7084,1.7049,1.7042,1.7043,1.7047,1.7147,1.7172,1.7233,1.7112,1.7113,1.7114,0,1.732,1.7308,1.7334,1.7298,1.7297,1.7307,1.729,1.7289,1.7266,1.7247,1.7236,1.7199,1.7207,1.7165,1.7173,1.715,1.7145,1.713,1.7132,1.7127,1.7081,1.7143,1.7252,1.726,1.7126,1.7125,1.7125,0,1.7408,1.7399,1.7412,1.7404,1.7363,1.737,1.7354,1.7328,1.7322,1.7309,1.7304,1.7292,1.7284,1.7275,1.7236,1.7209,1.7248,1.7203,1.723,1.7231,1.7239,1.7239,1.7346,1.7241,1.7241,1.7241,1.7241,0,1.7492,1.7509,1.7451,1.7459,1.7477,1.7431,1.7449,1.7427,1.7404,1.7406,1.736,1.7362,1.7311,1.7308,1.7277,1.7287,1.7285,1.7269,1.726,1.7271,1.7273,1.7266,1.7259,1.7243,1.7243,1.7242,1.7242,0,1.7593,1.7555,1.7565,1.7526,1.7516,1.753,1.7496,1.7501,1.7473,1.7476,1.7474,1.7431,1.7424,1.7385,1.737,1.7349,1.7369,1.7353,1.7376,1.737,1.7398,1.7395,1.7502,1.7513,1.7405,1.7406,1.7407,0,1.7647,1.7659,1.762,1.7617,1.7603,1.76,1.7594,1.7549,1.7544,1.7517,1.7525,1.7515,1.7504,1.7496,1.7462,1.745,1.7432,1.747,1.7429,1.744,1.7429,1.7427,1.7427,1.7478,1.748,1.7481,1.7482,0,1.7746,1.7726,1.7719,1.7704,1.7698,1.7684,1.7668,1.7669,1.7619,1.7615,1.7608,1.76,1.7583,1.7573,1.7555,1.7536,1.75,1.7495,1.75,1.751,1.7522,1.7513,1.7397,1.7492,1.7491,1.749,1.749,1.7489,1.7822,1.7829,1.7803,1.7795,1.7778,1.7764,1.7766,1.7738,1.7731,1.7714,1.7688,1.7684,1.7658,1.7629,1.7614,1.7609,1.7588,1.7597,1.7598,1.76,1.7605,1.7525,1.7606,1.7606,1.7605,1.7605,1.7605,0,1.7916,1.7896,1.789,1.7868,1.7862,1.7829,1.7809,1.7806,1.7802,1.7782,1.7772,1.7762,1.7751,1.7717,1.7702,1.7705,1.7688,1.7702,1.77,1.7696,1.7626,1.7621,1.7716,1.7716,1.7716,1.7716,1.7716,1.7716,1.7964,1.7973,1.795,1.795,1.793,1.7925,1.7916,1.7901,1.7884,1.7875,1.7866,1.7844,1.7817,1.78,1.7788,1.7778,1.7774,1.7793,1.7778,1.7712,1.7701,1.7691,1.7686,1.7794,1.7794,1.7848,1.7848,1.7849]},{"header":{"parameterUnit":"m.s-1","parameterCategory":1,"la1":30.2991,"la2":30.254,"lo1":-89.0895,"lo2":-89.0444,"dy":0.0017,"dx":0.0017,"nx":28,"ny":28,"refTime":"2024-07-19T21:00:00:Z","depth":0,"parameterNumber":3,"parameterNumberName":"V-component_of_WINDS"},"data":[0,0,0,0,0,0,0,0,0,0,0,0,0,0,0,0,0,0,0,0,0,0,0,0,0,0,0,0,0,0,0,0,0,0,0,0,0,0,0,0,0,0,0,0,0,0,0,0,0,0,0,0,0,0,0,0,0,0,4.2611,4.2611,0,4.2693,4.2694,4.2695,4.2677,4.2675,4.2673,4.2672,4.2754,4.2758,4.2761,0,0,0,0,0,0,0,0,0,0,0,0,0,4.2435,4.2438,4.261,4.2612,4.2613,4.2693,4.2694,4.2695,4.2677,4.2675,4.2673,4.2671,4.2753,4.2757,4.2762,0,0,0,0,0,0,0,0,0,0,0,0,0,4.2513,4.2439,4.261,4.2613,4.2614,4.2692,4.2694,4.2695,4.2677,4.2675,4.2673,4.267,4.2752,4.2757,4.2762,4.2842,0,0,4.2779,4.2781,0,0,0,0,0,0,0,0,4.2509,4.252,4.2612,4.2613,4.2615,4.2672,4.2662,4.2744,4.2678,4.2653,4.2672,4.2669,4.2729,4.2736,4.2756,4.2846,4.2849,4.2779,4.2783,4.2785,4.2786,0,0,0,0,0,0,0,4.2503,4.2516,4.2643,4.2613,4.2615,4.2609,4.2618,4.2677,4.2703,4.2655,4.2654,4.2664,4.2729,4.2751,4.2758,4.285,4.2779,4.2784,4.2787,4.2789,4.3006,4.3008,0,0,0,0,0,0,4.2497,4.2512,4.264,4.2645,4.2555,4.2614,4.2624,4.2656,4.2702,4.2707,4.2666,4.2663,4.2743,4.2752,4.2761,4.2854,4.2785,4.279,4.2793,4.3003,4.3006,4.3009,0,0,0,0,0,0,4.2493,4.2509,4.2637,4.2578,4.2594,4.262,4.2656,4.2659,4.2681,4.271,4.2714,4.2684,4.2741,4.2753,4.2821,4.2857,4.2792,4.2797,4.3,4.3004,4.3007,4.3044,0,0,0,0,0,0,4.2489,4.2508,4.2539,4.2579,4.2597,4.2697,4.2658,4.2662,4.269,4.2687,4.2728,4.2733,4.274,4.2813,4.2826,4.2863,4.2802,4.2997,4.3002,4.3006,4.3039,4.3048,4.3056,0,0,0,0,0,4.2482,4.2546,4.2541,4.2556,4.2637,4.2699,4.271,4.2717,4.2693,4.2724,4.2743,4.2732,4.2851,4.282,4.2835,4.2874,4.2995,4.3,4.3006,4.3036,4.3046,4.3055,0,0,0,0,0,0,4.251,4.2552,4.2546,4.2625,4.2659,4.2696,4.2735,4.2729,4.277,4.2765,4.2773,4.2782,4.2851,4.287,4.2834,4.2952,4.2919,4.2928,4.2937,4.2947,4.2955,4.2948,4.2806,0,0,0,0,0,4.2525,4.2573,4.2606,4.2673,4.269,4.271,4.2737,4.274,4.2775,4.2789,4.2813,4.2846,4.2891,4.2921,4.2964,4.3042,4.305,4.3076,4.3085,4.3091,4.3098,4.3138,4.3149,4.3027,4.3027,4.3027,0,0,4.2557,4.2586,4.2615,4.2679,4.2705,4.2753,4.2722,4.2774,4.2809,4.2797,4.2862,4.288,4.2918,4.2991,4.3024,4.3009,4.3134,4.3098,4.3103,4.3107,4.3145,4.3156,4.3167,4.3031,4.303,4.303,0,0,4.2639,4.2667,4.2723,4.275,4.279,4.2803,4.2817,4.2855,4.2867,4.2932,4.2923,4.2964,4.3042,4.3069,4.3092,4.3182,4.3172,4.3196,4.3238,4.3277,4.3287,4.3295,4.3324,4.3335,4.3203,4.3203,4.3203,0,4.2673,4.2745,4.2753,4.2806,4.2833,4.2824,4.2881,4.2906,4.2958,4.2977,4.2959,4.3055,4.308,4.3157,4.3179,4.3199,4.3213,4.3191,4.3285,4.3293,4.3301,4.3329,4.3341,4.3206,4.3206,4.3205,4.3205,0,4.2784,4.2834,4.2875,4.2925,4.2957,4.3011,4.3026,4.3057,4.3057,4.3071,4.3136,4.3166,4.3214,4.3233,4.3234,4.331,4.3299,4.3283,4.325,4.3315,4.3342,4.3353,4.3209,4.3208,4.3208,4.3207,0,0,4.2885,4.2938,4.2953,4.2974,4.3017,4.3055,4.3108,4.3155,4.318,4.3217,4.3259,4.3325,4.331,4.3337,4.334,4.3375,4.344,4.3354,4.3355,4.3367,4.3523,4.3533,4.3545,4.3435,4.3437,4.3439,4.3519,0,4.2969,4.3063,4.307,4.3154,4.3199,4.319,4.3236,4.3267,4.3281,4.332,4.3335,4.338,4.3359,4.3374,4.3408,4.3425,4.3471,4.342,4.3473,4.3475,4.3461,4.3559,4.3571,4.3645,4.3529,4.3531,4.3533,0,4.3079,4.3118,4.3205,4.324,4.3259,4.33,4.3342,4.338,4.3414,4.3421,4.3451,4.3449,4.3502,4.3468,4.3539,4.3504,4.3526,4.3538,4.3541,4.3544,4.3506,4.3563,4.3669,4.3679,4.3549,4.3548,4.3547,0,4.3141,4.3215,4.3276,4.3295,4.3337,4.3366,4.3385,4.3416,4.3443,4.348,4.3497,4.3539,4.3562,4.3594,4.3603,4.3579,4.3673,4.3641,4.3679,4.3679,4.3698,4.3696,4.3806,4.3717,4.3716,4.3716,4.3716,0,4.3232,4.3285,4.3304,4.3341,4.34,4.3408,4.3466,4.3483,4.3511,4.355,4.3546,4.3583,4.3594,4.3633,4.3641,4.3697,4.3708,4.3714,4.3715,4.3713,4.3712,4.3726,4.372,4.3719,4.3718,4.3718,4.3717,0,4.331,4.3325,4.3391,4.3425,4.3435,4.3476,4.3505,4.354,4.3553,4.3603,4.3615,4.3636,4.3681,4.3694,4.3748,4.3753,4.3818,4.3815,4.3806,4.3806,4.3842,4.3837,4.3963,4.3979,4.3881,4.3882,4.3883,0,4.3366,4.3407,4.3445,4.3471,4.3491,4.3534,4.356,4.357,4.3598,4.3638,4.3668,4.3712,4.3748,4.382,4.3839,4.3879,4.3876,4.3917,4.3882,4.3878,4.3874,4.387,4.3873,4.3923,4.3924,4.3925,4.3926,0,4.3463,4.3468,4.3507,4.3548,4.3581,4.3614,4.3645,4.3667,4.368,4.3712,4.3757,4.3785,4.384,4.3883,4.3924,4.3942,4.3935,4.3937,4.3947,4.3945,4.3937,4.3939,4.3822,4.3934,4.3933,4.3932,4.3932,4.3932,4.353,4.3565,4.3596,4.3639,4.3664,4.3693,4.3727,4.3744,4.3783,4.3828,4.3831,4.388,4.391,4.3964,4.3985,4.4022,4.401,4.4026,4.4029,4.4032,4.4034,4.3933,4.403,4.403,4.403,4.4029,4.4029,0,4.3625,4.3644,4.3684,4.3728,4.3761,4.3753,4.3787,4.3815,4.3858,4.3887,4.3922,4.3973,4.4015,4.4037,4.4078,4.4103,4.4101,4.4113,4.411,4.4114,4.4044,4.403,4.4114,4.4114,4.4114,4.4114,4.4114,4.4114,4.3677,4.3735,4.3743,4.3811,4.3831,4.3878,4.3898,4.3924,4.3947,4.4005,4.4039,4.4053,4.4079,4.4121,4.4158,4.4164,4.4178,4.4191,4.4194,4.4128,4.4119,4.4111,4.4097,4.4195,4.4195,4.4261,4.4262,4.4262]}]]